Humidity-temperature Sensor

Selected Measurement Type: Air Temperature

 
Air Temperature [°C]     6 entries per hour
Showing data from 9/15/2014 (00:00:00 Z) to 9/12/2014 (00:01:00 Z)
Previous Next [ Day | 3-Days | 7-Days ]
First Last
Prev [ Day | 3-Days | 7-Days ] Next
First Last

Start Time:     :
End Time:     :     
Time (in GMT) :00 :50 :40 :30 :20 :10
Previous Next [ Day | 3-Days | 7-Days ]
First Last
Prev [ Day | 3-Days | 7-Days ] Next
First Last


123 => good data
MM => data is determined as missing
-- => data not received/configured
Back to Top Back to Top
9/15/2014 00:00 to 23:10 25.54 25.37 25.48 25.52 25.35 25.41
9/14/2014 23:00 to 22:10 25.32 25.41 25.22 25.33 25.30 25.45
9/14/2014 22:00 to 21:10 25.35 25.28 25.44 25.28 25.50 25.32
9/14/2014 21:00 to 20:10 25.24 25.38 25.31 25.31 25.47 25.34
9/14/2014 20:00 to 19:10 25.29 25.34 25.19 25.21 25.31 25.26
9/14/2014 19:00 to 18:10 25.32 25.36 25.31 25.33 25.20 25.26
9/14/2014 18:00 to 17:10 25.39 25.38 25.34 25.35 25.41 25.45
9/14/2014 17:00 to 16:10 25.41 25.53 25.40 25.40 25.42 25.63
9/14/2014 16:00 to 15:10 25.53 25.56 25.60 25.34 25.25 25.34
9/14/2014 15:00 to 14:10 25.09 24.96 25.01 24.79 25.04 24.97
9/14/2014 14:00 to 13:10 24.78 24.86 25.04 25.01 24.90 24.78
9/14/2014 13:00 to 12:10 24.76 24.90 24.80 24.92 25.08 24.92
9/14/2014 12:00 to 11:10 24.78 24.87 25.00 24.87 24.96 24.95
9/14/2014 11:00 to 10:10 24.83 24.91 25.03 24.86 24.82 24.90
9/14/2014 10:00 to 9:10 24.92 24.96 24.97 24.95 24.96 25.03
9/14/2014 09:00 to 8:10 25.10 25.19 25.04 24.98 25.00 25.07
9/14/2014 08:00 to 7:10 25.25 25.09 25.21 25.06 25.06 25.33
9/14/2014 07:00 to 6:10 25.23 25.08 25.24 25.20 25.19 25.38
9/14/2014 06:00 to 5:10 25.30 25.20 25.26 25.41 25.26 25.45
9/14/2014 05:00 to 4:10 25.31 25.25 25.26 25.20 25.08 25.14
9/14/2014 04:00 to 3:10 25.21 25.34 25.22 25.19 25.16 25.24
9/14/2014 03:00 to 2:10 25.19 25.44 25.42 25.27 25.31 24.95
9/14/2014 02:00 to 1:10 25.38 25.43 25.31 25.46 25.47 25.83
9/14/2014 01:00 to 0:10 25.68 25.67 25.68 25.70 25.63 25.42
9/14/2014 00:00 to 23:10 25.52 25.67 25.66 25.57 25.66 25.41
9/13/2014 23:00 to 22:10 25.50 25.41 25.45 25.54 25.48 25.41
9/13/2014 22:00 to 21:10 25.48 25.39 25.45 25.39 25.75 25.44
9/13/2014 21:00 to 20:10 25.53 25.44 25.64 25.51 25.47 25.68
9/13/2014 20:00 to 19:10 25.42 25.45 25.55 25.45 25.39 25.41
9/13/2014 19:00 to 18:10 25.41 25.48 25.40 25.18 25.39 25.33
9/13/2014 18:00 to 17:10 25.52 25.43 25.56 25.46 25.39 25.27
9/13/2014 17:00 to 16:10 25.57 25.43 25.41 25.26 25.34 25.25
9/13/2014 16:00 to 15:10 25.31 25.25 25.35 25.02 25.27 25.11
9/13/2014 15:00 to 14:10 25.07 24.95 25.19 24.90 24.86 25.13
9/13/2014 14:00 to 13:10 24.86 25.03 24.95 24.99 25.06 24.91
9/13/2014 13:00 to 12:10 24.95 25.04 25.00 24.91 25.10 25.08
9/13/2014 12:00 to 11:10 24.99 24.94 24.89 24.94 25.06 25.00
9/13/2014 11:00 to 10:10 25.12 25.01 25.02 25.07 24.98 25.04
9/13/2014 10:00 to 9:10 25.03 25.27 25.19 25.23 25.21 25.20
9/13/2014 09:00 to 8:10 25.29 25.21 25.30 25.37 25.27 25.48
9/13/2014 08:00 to 7:10 25.40 25.40 25.43 25.49 25.45 25.54
9/13/2014 07:00 to 6:10 25.45 25.62 25.29 25.27 25.51 25.59
9/13/2014 06:00 to 5:10 25.40 25.50 25.74 25.42 25.56 25.64
9/13/2014 05:00 to 4:10 25.52 25.56 25.50 25.76 25.43 25.52
9/13/2014 04:00 to 3:10 25.44 25.52 25.67 25.45 25.58 25.43
9/13/2014 03:00 to 2:10 25.48 25.43 25.50 25.51 25.25 25.67
9/13/2014 02:00 to 1:10 25.46 25.54 25.71 25.75 25.98 25.90
9/13/2014 01:00 to 0:10 25.81 25.84 25.77 25.79 25.64 25.80
9/13/2014 00:00 to 23:10 25.68 25.84 25.72 25.85 25.77 25.82
9/12/2014 23:00 to 22:10 26.18 25.71 25.77 25.71 25.65 25.78
9/12/2014 22:00 to 21:10 25.71 25.84 25.82 25.86 25.75 25.76
9/12/2014 21:00 to 20:10 25.68 25.69 25.46 25.71 25.78 25.63
9/12/2014 20:00 to 19:10 25.77 25.61 25.71 25.77 25.66 25.79
9/12/2014 19:00 to 18:10 25.84 25.71 25.77 25.76 25.71 25.82
9/12/2014 18:00 to 17:10 25.69 25.97 25.87 25.96 25.79 25.89
9/12/2014 17:00 to 16:10 26.04 25.99 26.09 25.67 25.66 25.83
9/12/2014 16:00 to 15:10 25.83 25.96 25.77 25.99 25.85 25.88
9/12/2014 15:00 to 14:10 25.77 25.80 25.66 25.60 25.40 25.67
9/12/2014 14:00 to 13:10 25.45 25.43 25.51 25.59 25.27 25.37
9/12/2014 13:00 to 12:10 25.39 25.47 25.28 25.47 25.30 25.44
9/12/2014 12:00 to 11:10 25.42 25.35 25.42 25.66 25.69 25.44
9/12/2014 11:00 to 10:10 25.30 25.54 25.53 25.51 25.77 25.65
9/12/2014 10:00 to 9:10 -- -- -- -- -- --
9/12/2014 09:00 to 8:10 25.70 25.83 25.86 25.70 25.72 25.81
9/12/2014 08:00 to 7:10 25.80 25.84 25.76 25.87 25.87 25.85
9/12/2014 07:00 to 6:10 25.75 25.84 25.78 25.87 25.87 25.97
9/12/2014 06:00 to 5:10 26.03 25.92 25.99 26.03 26.01 26.03
9/12/2014 05:00 to 4:10 26.06 25.99 25.82 26.05 25.81 26.04
9/12/2014 04:00 to 3:10 25.97 25.97 26.14 25.97 26.08 26.09
9/12/2014 03:00 to 2:10 26.22 26.05 26.24 26.13 26.15 25.97
9/12/2014 02:00 to 1:10 26.21 26.18 26.27 26.11 26.09 26.30
9/12/2014 01:00 to 0:10 26.18 26.21 26.08 26.06 26.31 26.26